Weather History for Ely, MN

Change the Weather History Date:

Friday, September 20, 2013

  Actual Average Record
Temperature  
Mean Temperature 53 °F -  
Max Temperature 62 °F 61 °F 78 °F (2005)
Min Temperature 44 °F 41 °F 32 °F (2010)
Degree Days  
Heating Degree Days 12    
Growing Degree Days 3 (Base 50)    
Moisture  
Dew Point 49 °F    
Average Humidity 89    
Maximum Humidity 100    
Minimum Humidity 71    
Precipitation  
Precipitation 0.01 in - - ()
Sea Level Pressure  
Sea Level Pressure 29.75 in    
Wind  
Wind Speed 7 mph (WNW)    
Max Wind Speed 13 mph    
Max Gust Speed 21 mph    
Visibility 8 miles    
Events Rain    
Averages and records for this station are not official NWS values.
T = Trace of Precipitation, MM = Missing Value Source: NWS Daily Summary

Daily Weather History Graph

Daily Weather History Graph

Search for Another Location

Airport:

Trip Planner

Search our weather history database for the weather conditions in past years. The results will help you decide how hot, cold, wet, or windy it might be!

Date:

Astronomy

Sep. 20, 2013 Rise Set
Actual Time 6:51 AM CDT 7:08 PM CDT
Civil Twilight 6:20 AM CDT 7:39 PM CDT
Nautical Twilight 5:44 AM CDT 8:15 PM CDT
Astronomical Twilight 5:06 AM CDT 8:53 PM CDT
Moon 7:32 PM CDT (9/20) 8:15 AM CDT (9/20)
Length of Visible Light 13h 18m
Length of Day
12h 17m
Full, 98% of the Moon is Illuminated
Sep 20
Full
Sep 26
Last Quarter
Oct 4
New
Oct 11
First Quarter
Oct 18
Full

Hourly Weather History & Observations

Time (CDT) Temp. Windchill Dew Point Humidity Pressure Visibility Wind Dir Wind Speed Gust Speed Precip Events Conditions
12:13 AM 62.6 °F - 60.8 °F 94% 29.69 in 10.0 mi WNW 8.1 mph - N/A   Overcast
12:32 AM 60.8 °F - 59.0 °F 94% 29.69 in 10.0 mi WNW 5.8 mph - N/A   Overcast
12:52 AM 60.8 °F - 59.0 °F 94% 29.69 in 10.0 mi WNW 5.8 mph - N/A   Overcast
1:13 AM 60.8 °F - 59.0 °F 94% 29.69 in 10.0 mi WNW 8.1 mph - N/A   Overcast
1:32 AM 60.8 °F - 57.2 °F 88% 29.69 in 10.0 mi West 8.1 mph 17.3 mph N/A   Overcast
1:53 AM 60.8 °F - 57.2 °F 88% 29.69 in 10.0 mi West 6.9 mph - N/A   Overcast
2:12 AM 60.8 °F - 57.2 °F 88% 29.69 in 10.0 mi WNW 6.9 mph - N/A   Overcast
2:32 AM 59.0 °F - 57.2 °F 94% 29.68 in 10.0 mi WNW 6.9 mph - N/A   Overcast
2:53 AM 59.0 °F - 57.2 °F 94% 29.69 in 10.0 mi WNW 9.2 mph - N/A   Overcast
3:12 AM 57.2 °F - 55.4 °F 94% 29.69 in 10.0 mi WNW 9.2 mph - N/A   Overcast
3:32 AM 57.2 °F - 55.4 °F 94% 29.69 in 10.0 mi NW 11.5 mph 16.1 mph N/A   Overcast
3:53 AM 57.2 °F - 53.6 °F 88% 29.70 in 10.0 mi WNW 11.5 mph 20.7 mph N/A   Overcast
4:12 AM 55.4 °F - 53.6 °F 94% 29.70 in 10.0 mi WNW 11.5 mph 19.6 mph N/A   Overcast
4:32 AM 55.4 °F - 53.6 °F 94% 29.70 in 10.0 mi NW 8.1 mph - N/A   Overcast
4:53 AM 53.6 °F - 51.8 °F 94% 29.71 in 10.0 mi WNW 6.9 mph - N/A   Overcast
5:12 AM 53.6 °F - 51.8 °F 94% 29.72 in 7.0 mi West 9.2 mph - N/A   Overcast
5:32 AM 53.6 °F - 51.8 °F 94% 29.71 in 3.0 mi WNW 4.6 mph - N/A Rain Rain
5:53 AM 53.6 °F - 51.8 °F 94% 29.72 in 10.0 mi WNW 3.5 mph - N/A Rain Light Rain
6:13 AM 53.6 °F - 51.8 °F 94% 29.71 in 10.0 mi NW 3.5 mph - N/A   Overcast
6:32 AM 53.6 °F - 51.8 °F 94% 29.70 in 5.0 mi WNW 4.6 mph - N/A Rain Rain
6:53 AM 53.6 °F - 51.8 °F 94% 29.71 in 2.5 mi WNW 6.9 mph - N/A   Heavy Drizzle
7:13 AM 51.8 °F - 51.8 °F 100% 29.71 in 4.0 mi NW 6.9 mph - N/A Rain Light Rain
7:32 AM 51.8 °F - 51.8 °F 100% 29.72 in 2.0 mi NW 6.9 mph - N/A   Drizzle
7:53 AM 51.8 °F - 51.8 °F 100% 29.72 in 4.0 mi WNW 6.9 mph - N/A   Overcast
8:13 AM 51.8 °F - 50.0 °F 94% 29.73 in 10.0 mi WNW 10.4 mph - N/A   Overcast
8:32 AM 51.8 °F - 48.2 °F 88% 29.73 in 10.0 mi WNW 6.9 mph 18.4 mph N/A   Overcast
8:53 AM 51.8 °F - 48.2 °F 88% 29.73 in 10.0 mi WNW 6.9 mph - N/A   Overcast
9:13 AM 51.8 °F - 48.2 °F 88% 29.74 in 10.0 mi NW 4.6 mph - N/A   Overcast
9:32 AM 51.8 °F - 48.2 °F 88% 29.74 in 10.0 mi Calm Calm - N/A   Overcast
9:53 AM 51.8 °F - 48.2 °F 88% 29.75 in 2.5 mi WNW 5.8 mph - 0.01 in   Drizzle
10:13 AM 50.0 °F - 48.2 °F 94% 29.75 in 1.8 mi WNW 8.1 mph - N/A   Drizzle
10:32 AM 48.2 °F - 46.4 °F 93% 29.75 in 5.0 mi WNW 11.5 mph 17.3 mph N/A Rain Rain
10:53 AM 48.2 °F - 46.4 °F 93% 29.76 in 10.0 mi NW 9.2 mph 17.3 mph N/A   Overcast
11:13 AM 48.2 °F - 46.4 °F 93% 29.76 in 10.0 mi NW 11.5 mph 17.3 mph N/A   Overcast
11:32 AM 51.8 °F - 46.4 °F 82% 29.77 in 10.0 mi NW 6.9 mph - N/A   Overcast
11:53 AM 50.0 °F - 46.4 °F 87% 29.77 in 10.0 mi WNW 6.9 mph - N/A   Overcast
12:13 PM 50.0 °F - 46.4 °F 87% 29.77 in 10.0 mi Calm Calm - N/A   Overcast
12:32 PM 50.0 °F - 46.4 °F 87% 29.77 in 10.0 mi NW 3.5 mph - N/A   Overcast
12:53 PM 50.0 °F - 46.4 °F 87% 29.77 in 7.0 mi West 11.5 mph 18.4 mph N/A   Drizzle
1:13 PM 51.8 °F - 46.4 °F 82% 29.77 in 10.0 mi WNW 10.4 mph - N/A   Overcast
1:33 PM 51.8 °F - 44.6 °F 76% 29.76 in 10.0 mi WNW 12.7 mph 20.7 mph N/A   Overcast
1:53 PM 50.0 °F - 44.6 °F 82% 29.77 in 10.0 mi WNW 10.4 mph 20.7 mph N/A   Overcast
2:13 PM 50.0 °F - 44.6 °F 82% 29.77 in 10.0 mi WNW 10.4 mph 19.6 mph N/A   Overcast
2:32 PM 51.8 °F - 44.6 °F 76% 29.77 in 10.0 mi NW 10.4 mph 20.7 mph N/A   Overcast
2:53 PM 51.8 °F - 44.6 °F 76% 29.77 in 10.0 mi NW 9.2 mph 20.7 mph N/A   Overcast
3:12 PM 51.8 °F - 44.6 °F 76% 29.78 in 10.0 mi WNW 9.2 mph 17.3 mph N/A   Overcast
3:33 PM 51.8 °F - 44.6 °F 76% 29.78 in 10.0 mi NW 10.4 mph 18.4 mph N/A   Mostly Cloudy
3:52 PM 51.8 °F - 42.8 °F 71% 29.77 in 10.0 mi NW 10.4 mph 19.6 mph N/A   Scattered Clouds
4:13 PM 53.6 °F - 44.6 °F 72% 29.78 in 10.0 mi WNW 5.8 mph - N/A   Scattered Clouds
4:33 PM 51.8 °F - 44.6 °F 76% 29.77 in 10.0 mi WNW 6.9 mph - N/A   Mostly Cloudy
4:52 PM 53.6 °F - 44.6 °F 72% 29.77 in 10.0 mi WNW 9.2 mph - N/A   Overcast
5:12 PM 53.6 °F - 44.6 °F 72% 29.77 in 10.0 mi WNW 6.9 mph - N/A   Overcast
5:33 PM 51.8 °F - 44.6 °F 76% 29.77 in 10.0 mi NNW 4.6 mph - N/A Rain Rain
5:52 PM 50.0 °F - 46.4 °F 87% 29.78 in 4.0 mi NW 4.6 mph - N/A Rain Rain
6:12 PM 50.0 °F - 46.4 °F 87% 29.78 in 10.0 mi NW 3.5 mph - N/A   Overcast
6:33 PM 48.2 °F - 46.4 °F 93% 29.79 in 4.0 mi WNW 9.2 mph 19.6 mph N/A Rain Light Rain
6:52 PM 48.2 °F - 46.4 °F 93% 29.79 in 10.0 mi WNW 6.9 mph - N/A Rain Light Rain
7:12 PM 46.4 °F 44.3 °F 44.6 °F 93% 29.80 in 10.0 mi WNW 4.6 mph - N/A   Mostly Cloudy
7:33 PM 46.4 °F 45.2 °F 44.6 °F 93% 29.80 in 10.0 mi WNW 3.5 mph - N/A   Scattered Clouds
7:52 PM 46.4 °F 45.2 °F 46.4 °F 100% 29.80 in 10.0 mi West 3.5 mph - N/A   Mostly Cloudy
8:12 PM 48.2 °F - 46.4 °F 93% 29.80 in 10.0 mi WNW 5.8 mph - N/A   Overcast
8:33 PM 48.2 °F - 44.6 °F 87% 29.81 in 7.0 mi WNW 10.4 mph 19.6 mph N/A   Overcast
8:52 PM 46.4 °F 43.5 °F 44.6 °F 93% 29.81 in 10.0 mi NW 5.8 mph - N/A   Overcast
9:13 PM 46.4 °F 42.4 °F 44.6 °F 93% 29.82 in 4.0 mi WNW 8.1 mph - N/A Rain Rain
9:33 PM 46.4 °F 42.9 °F 44.6 °F 93% 29.82 in 4.0 mi WNW 6.9 mph - N/A   Heavy Drizzle
9:52 PM 46.4 °F 42.9 °F 44.6 °F 93% 29.82 in 10.0 mi WNW 6.9 mph - N/A   Overcast
10:13 PM 46.4 °F 43.5 °F 44.6 °F 93% 29.82 in 4.0 mi WNW 5.8 mph - N/A Rain Heavy Rain
10:33 PM 46.4 °F 43.5 °F 44.6 °F 93% 29.82 in 2.5 mi NNW 5.8 mph - N/A Rain Rain
10:52 PM 46.4 °F 42.9 °F 44.6 °F 93% 29.82 in 7.0 mi WNW 6.9 mph - N/A Rain Rain
11:13 PM 46.4 °F 41.1 °F 42.8 °F 87% 29.83 in 4.0 mi NW 11.5 mph - N/A Rain Rain
11:33 PM 44.6 °F 39.2 °F 42.8 °F 93% 29.83 in 3.0 mi NNW 10.4 mph 17.3 mph N/A Rain Light Rain
11:52 PM 44.6 °F 42.2 °F 42.8 °F 93% 29.83 in 10.0 mi WNW 4.6 mph - N/A   Overcast